This is the latest recevied weather packets stored in our database for station/object KK6LZB. If no packets are shown the sender has not sent any weather packets the latest 10 day(s).
| Time | Temp. | Humidity | Pressure | Rain* | Wind** | Luminosity | Snow |
|---|---|---|---|---|---|---|---|
| 1778088754 | 17.78° C | 78% | 1020.5 hPa | 0 mm | - | 164 W/m² | - |
| 1778088451 | 17.22° C | 79% | 1020.3 hPa | 0 mm | - | 514 W/m² | - |
| 1778088147 | 17.78° C | 78% | 1020.4 hPa | 0 mm | - | 584 W/m² | - |
| 1778087845 | 17.78° C | 77% | 1020.3 hPa | 0 mm | - | 146 W/m² | - |
| 1778087542 | 17.78° C | 78% | 1020.4 hPa | 0 mm | - | 216 W/m² | - |
| 1778087240 | 18.89° C | 76% | 1020.4 hPa | 0 mm | - | 139 W/m² | - |
| 1778086936 | 18.89° C | 77% | 1020.4 hPa | 0 mm | - | 526 W/m² | - |
| 1778086635 | 18.33° C | 78% | 1020.5 hPa | 0 mm | - | 513 W/m² | - |
| 1778086331 | 17.78° C | 80% | 1020.6 hPa | 0 mm | - | 520 W/m² | - |
| 1778086028 | 17.22° C | 82% | 1020.5 hPa | 0 mm | - | 473 W/m² | - |
| 1778085725 | 16.67° C | 81% | 1020.6 hPa | 0 mm | - | 496 W/m² | - |
| 1778085421 | 16.67° C | 82% | 1020.7 hPa | 0 mm | - | 95 W/m² | - |
| 1778085117 | 17.22° C | 79% | 1020.6 hPa | 0 mm | - | 89 W/m² | - |
| 1778084813 | 17.78° C | 75% | 1020.5 hPa | 0 mm | - | 362 W/m² | - |
| 1778084511 | 18.33° C | 76% | 1020.7 hPa | 0 mm | - | 390 W/m² | - |
| 1778084208 | 16.67° C | 80% | 1020.7 hPa | 0 mm | - | 464 W/m² | - |
| 1778083904 | 16.67° C | 81% | 1020.6 hPa | 0 mm | - | 244 W/m² | - |
| 1778083602 | 16.11° C | 82% | 1020.7 hPa | 0 mm | - | 124 W/m² | - |
| 1778083299 | 16.11° C | 84% | 1020.5 hPa | 0 mm | - | 92 W/m² | - |
| 1778082997 | 15.56° C | 85% | 1020.5 hPa | 0 mm | - | 72 W/m² | - |
| 1778082694 | 15° C | 87% | 1020.4 hPa | 0 mm | - | 41 W/m² | - |
| 1778081550 | 15° C | 88% | 1020.5 hPa | 0 mm | - | 42 W/m² | - |
| 1778081247 | 15° C | 87% | 1020.6 hPa | 0 mm | - | 40 W/m² | - |
| 1778080945 | 15° C | 87% | 1020.5 hPa | 0 mm | - | 40 W/m² | - |
| 1778080644 | 14.44° C | 86% | 1020.6 hPa | 0 mm | - | 40 W/m² | - |
* Rain latest hour (hover to see other rain measurements)
** Current wind speed in m/s (hover to see current wind gust speed)